Wind_Speed
35 35 35 34 34 34 36 36 37 37 37 36 35 34 33 33 33 33 32 31 30 30 29 28 28 27 26 26 25 24 24 23 22 22 21 21 21 21 21 22 22 23 24 25 26 27 27 27 28 29 30 31 32 32 33 34 35 35 35 35 36 36 36 37 38 38 38 39 40 40 41 41 41 41 42 42 42 43 43 43 44 44 44 44 45 45
35 36 37 38 38 38 39 39 39 38 39 38 36 35 34 34 34 34 33 32 31 30 29 29 28 27 26 25 25 24 23 22 22 21 21 20 20 20 21 22 22 23 24 25 26 27 27 28 29 30 31 32 32 33 33 34 34 34 34 35 35 36 36 37 38 38 39 40 40 41 41 41 41 42 42 43 43 43 44 44 44 45 45 45 45 46
34 35 37 38 39 40 40 41 40 40 39 39 37 36 35 34 34 34 33 32 30 30 29 28 27 27 26 25 25 24 23 22 21 21 20 20 20 21 21 22 23 24 25 26 26 27 28 29 30 31 31 31 32 32 33 34 34 35 35 36 36 36 37 37 38 39 39 40 41 42 42 42 43 43 43 44 44 45 45 46 46 46 46 46 46 47
33 34 36 37 38 40 41 41 41 40 40 39 37 36 35 34 34 33 32 31 30 29 28 27 27 26 26 25 25 24 23 22 21 20 20 20 21 21 21 22 23 24 25 27 28 29 29 30 30 30 31 31 32 33 34 35 35 36 36 37 37 37 37 38 38 38 39 39 40 41 42 42 43 43 43 44 44 45 45 46 46 46 46 46 46 47
34 34 35 35 36 38 40 40 40 40 40 39 38 36 35 34 34 33 32 31 30 29 28 27 27 26 26 26 25 24 22 21 21 20 20 21 21 21 22 23 24 25 26 27 28 29 30 30 30 30 31 32 32 33 34 34 35 35 36 37 37 38 38 39 39 39 39 39 40 40 41 41 42 42 43 43 43 44 44 45 45 46 46 46 46 46
34 34 35 34 35 37 38 39 39 40 40 39 38 37 35 35 34 33 32 31 30 29 28 28 27 27 26 26 25 24 22 21 21 21 21 21 21 22 23 24 25 26 26 27 28 28 29 29 30 30 31 32 33 33 34 34 34 35 36 36 37 37 38 38 39 39 39 39 40 40 40 41 41 42 42 42 43 43 43 44 44 45 45 46 46 46
35 34 34 34 35 37 38 39 39 40 39 39 38 37 36 35 34 34 33 32 30 29 29 28 28 27 27 26 25 24 22 22 21 21 21 21 22 22 23 24 25 26 27 27 28 28 29 29 30 31 31 32 33 33 33 34 34 35 35 36 37 37 37 38 38 39 39 40 40 40 41 41 41 41 42 42 42 43 43 43 44 44 44 45 45 45
35 34 34 34 35 37 38 39 40 40 40 39 38 37 37 36 35 34 33 32 31 30 29 28 28 27 27 26 25 24 23 22 22 22 22 23 23 23 24 25 26 27 28 29 29 29 30 30 31 31 32 32 33 33 34 34 34 35 36 36 36 37 37 38 38 39 39 39 40 40 40 40 40 41 41 41 42 42 42 43 43 43 44 44 45 45
36 35 35 35 36 36 38 39 40 40 40 39 38 37 37 36 36 35 34 33 31 30 29 29 28 28 27 26 25 24 23 23 23 23 23 24 24 25 26 28 29 29 30 30 30 30 30 31 31 32 32 33 33 34 35 35 36 37 37 37 38 38 38 38 38 38 38 38 39 39 39 39 39 39 40 40 40 41 41 42 43 43 44 44 45 45
37 37 37 38 38 37 37 39 40 40 39 39 38 38 37 36 36 35 34 33 32 31 30 29 29 28 27 26 24 23 23 23 23 23 24 24 25 26 28 29 31 31 31 30 30 30 30 31 31 32 32 33 35 36 37 37 38 38 38 38 37 37 37 37 37 37 37 37 37 37 37 38 38 38 39 39 40 40 40 41 42 42 43 44 44 45
37 37 37 38 38 38 37 38 39 40 39 38 38 38 38 37 36 35 35 34 33 31 30 29 28 27 26 25 24 23 23 23 24 24 24 25 26 28 29 30 30 30 30 30 30 30 31 31 32 33 34 35 37 38 38 38 38 38 37 36 36 36 35 35 35 35 35 35 35 35 36 36 37 38 38 39 39 39 40 40 41 41 42 43 44 44
36 36 36 36 36 37 37 38 39 39 38 36 36 37 38 38 36 35 35 34 32 30 29 28 27 26 25 24 23 23 23 23 24 25 26 27 28 29 29 29 29 29 29 30 31 31 32 33 34 35 36 38 38 39 38 38 37 37 36 36 35 35 34 34 34 34 35 35 35 36 37 37 37 38 38 39 39 40 40 40 41 42 42 43 44 45
36 36 36 35 36 36 36 36 36 35 35 35 35 36 37 36 35 34 33 32 30 29 27 26 25 25 24 23 23 23 24 24 25 26 27 28 28 28 29 29 29 30 30 31 32 33 34 35 36 38 39 39 39 39 38 37 37 36 35 35 34 34 34 35 35 36 36 37 37 37 37 38 38 39 39 40 40 41 41 41 42 43 43 44 45 45
36 36 35 35 36 36 36 36 35 35 34 35 36 36 35 34 33 31 30 30 29 27 25 25 24 24 24 24 24 24 24 25 26 26 27 28 28 28 28 28 29 30 31 32 33 35 36 37 38 39 40 40 39 39 38 37 36 35 35 34 34 34 34 35 36 37 37 38 38 39 39 39 40 40 40 41 41 42 42 43 43 44 45 45 46 46
37 36 35 35 35 35 36 36 37 37 37 37 37 36 34 33 32 31 29 29 28 26 25 24 25 25 26 25 24 23 23 23 24 25 27 28 28 27 27 28 29 31 32 33 35 36 37 38 39 40 40 40 39 38 37 37 36 35 34 34 34 34 35 35 36 37 38 38 39 39 40 41 41 41 42 42 42 42 43 44 44 45 45 46 47 47
37 37 36 37 36 36 36 37 37 38 39 38 37 35 34 33 32 31 29 29 27 25 24 24 25 26 27 26 24 22 20 20 21 23 25 27 28 28 28 28 30 32 33 34 35 37 38 39 40 40 40 40 39 38 37 36 35 35 34 34 34 34 34 35 36 37 38 38 39 39 40 41 41 42 42 43 43 44 44 44 45 45 45 46 47 47
37 37 35 36 37 37 38 38 38 39 40 39 37 36 35 34 33 32 29 28 26 24 23 23 23 23 24 24 23 20 18 17 19 22 25 28 29 29 29 29 30 33 35 35 36 37 38 39 40 40 40 39 39 38 37 36 35 34 34 34 33 33 34 34 35 37 37 38 38 39 40 40 41 41 42 43 43 44 44 44 45 45 46 46 47 47
38 38 37 37 37 37 38 38 39 39 39 38 37 36 35 34 33 31 29 27 26 24 24 23 23 23 23 23 22 20 17 17 20 23 26 29 31 31 30 30 31 33 35 36 37 38 39 39 40 40 39 39 38 37 37 36 35 35 34 33 33 33 33 34 35 37 38 38 39 39 39 39 40 41 42 42 43 43 44 44 45 45 46 46 47 47
38 37 38 38 38 38 37 36 36 36 35 35 34 33 33 33 32 30 28 27 26 25 24 24 24 24 25 25 24 22 20 21 22 24 27 29 31 31 30 30 31 33 35 37 38 39 39 39 40 40 39 38 38 37 36 36 35 34 33 33 33 33 33 34 35 37 38 39 39 40 39 40 40 41 41 42 43 43 44 44 45 45 46 46 46 47
37 36 37 38 38 37 37 37 37 36 35 34 33 32 32 31 30 29 27 26 25 25 24 25 25 26 27 27 27 25 23 23 24 25 27 29 31 32 31 30 31 33 36 38 39 39 39 39 40 40 39 38 38 37 36 36 35 34 33 33 32 32 33 34 36 37 38 39 39 40 40 40 41 41 41 42 42 43 44 44 44 45 45 46 46 47
40 39 37 37 37 36 35 38 39 37 35 34 33 32 32 31 29 28 27 26 25 25 25 25 27 27 27 27 27 26 24 23 24 25 27 30 32 33 33 31 31 33 36 38 39 39 38 39 39 39 39 39 38 37 36 36 35 34 33 32 32 32 33 34 36 37 37 38 38 39 39 40 40 41 41 41 42 42 43 43 44 44 45 46 46 47
42 40 39 38 38 38 38 38 37 35 34 33 33 32 32 30 29 28 27 26 26 26 26 27 28 27 27 28 28 27 25 25 25 26 28 30 33 35 34 31 31 33 36 38 38 38 38 38 39 39 39 38 37 37 36 35 35 34 32 32 31 31 32 33 35 36 36 37 38 38 39 39 40 40 41 41 42 43 43 44 44 44 45 45 45 46
43 42 41 40 40 40 39 38 36 35 34 33 33 32 31 29 28 27 27 26 26 26 27 28 28 29 29 30 30 29 28 28 29 29 29 30 33 35 34 31 31 33 36 37 38 38 38 39 39 39 39 38 37 36 35 35 34 33 32 31 31 32 32 33 34 35 36 37 37 38 39 40 40 41 41 42 42 43 43 43 43 43 44 44 44 44
46 44 42 41 40 39 38 37 36 35 34 33 33 31 29 28 27 26 27 27 27 28 29 29 30 30 31 32 32 32 32 31 31 31 31 31 33 34 34 32 32 33 35 37 37 37 38 39 39 39 38 38 37 36 35 34 33 32 31 31 31 32 32 33 34 35 36 37 38 39 39 40 40 41 41 41 41 41 41 41 41 41 41 42 42 43
49 47 45 44 42 41 39 37 36 34 33 32 31 30 29 28 27 27 28 28 29 30 30 31 32 32 32 32 32 32 32 32 30 30 30 30 31 32 33 32 31 32 35 37 38 37 38 38 38 38 38 38 37 35 34 33 32 31 31 31 31 32 33 34 34 36 37 37 38 39 39 40 40 40 40 40 40 40 39 39 39 39 40 41 42 43
49 49 48 46 45 43 41 39 37 35 33 32 31 30 29 29 29 29 30 31 31 32 32 33 33 33 33 31 31 31 31 30 29 28 28 28 28 31 33 32 31 31 34 36 37 37 36 37 37 38 37 37 36 35 33 32 31 31 31 31 32 33 34 34 35 36 37 38 38 39 39 39 39 39 39 40 40 40 39 39 39 40 41 41 42 43
44 47 47 47 46 45 44 42 39 37 35 33 32 30 29 29 30 31 33 33 33 33 34 35 34 33 32 31 31 31 30 28 28 27 27 26 27 30 32 32 31 31 34 35 36 35 34 34 36 36 36 36 35 34 33 32 31 31 31 32 32 33 34 35 36 36 37 38 38 38 38 38 38 38 39 39 40 40 40 39 39 40 40 40 41 42
37 41 44 46 46 46 45 43 41 38 36 34 32 30 29 30 31 33 35 33 32 32 34 36 35 33 30 30 31 31 30 28 28 27 26 25 26 29 32 32 31 31 32 33 34 34 32 33 33 34 34 34 33 32 32 32 31 32 32 33 34 35 36 36 37 37 37 37 38 38 38 38 38 38 39 39 40 40 39 38 38 38 38 39 40 40
35 36 39 42 44 44 44 42 41 38 36 33 31 29 30 31 33 34 34 32 31 33 34 34 33 32 31 31 32 32 31 31 29 27 26 25 27 29 31 30 30 30 29 30 31 32 32 31 31 30 31 31 31 31 32 32 33 34 35 36 36 37 38 38 38 37 37 37 37 37 37 37 37 38 38 38 39 38 38 37 36 37 37 39 39 39
38 35 34 36 39 40 40 40 38 36 34 32 30 29 31 33 34 35 33 31 31 32 32 32 31 32 32 32 31 31 30 30 29 26 24 24 26 27 29 28 29 28 27 27 28 29 30 31 30 28 27 28 30 31 32 33 34 36 36 37 38 39 40 39 39 38 38 38 38 37 37 37 37 37 37 37 37 37 37 36 35 36 37 38 39 39
42 39 36 34 34 35 35 36 35 34 33 31 30 30 32 34 35 34 33 31 30 30 30 31 32 33 33 32 29 26 26 26 24 23 22 22 24 26 27 28 28 29 27 25 24 25 28 30 30 28 27 27 29 32 32 33 34 35 36 38 39 40 41 40 39 39 39 39 38 38 37 36 36 36 36 36 36 35 35 34 34 34 35 36 37 38
42 43 41 38 35 34 33 33 33 33 33 32 32 32 33 34 34 34 33 32 32 32 33 33 34 34 34 33 30 27 26 25 23 22 22 23 25 27 28 29 29 29 28 25 24 24 24 27 30 31 30 30 31 32 31 32 33 34 35 36 38 40 41 41 40 40 40 40 40 38 37 36 35 35 35 35 35 34 33 32 31 31 32 34 35 37
40 43 44 43 41 38 36 35 35 34 34 35 35 35 35 36 36 36 36 37 38 38 38 37 36 36 35 34 32 31 31 29 27 26 25 26 27 29 30 30 29 29 28 26 26 26 27 29 31 33 33 32 31 30 30 31 32 32 34 35 37 40 42 42 42 42 42 41 40 40 38 37 37 36 35 34 34 33 32 31 31 31 31 33 35 37
37 40 43 45 45 43 42 40 39 38 38 38 39 40 41 42 42 42 42 42 43 44 44 42 40 38 37 35 34 34 34 33 31 29 28 28 30 31 30 29 29 29 28 26 26 27 28 30 32 32 32 32 32 31 30 30 30 32 33 34 37 39 41 42 42 42 42 41 41 41 39 39 38 36 36 35 34 33 32 31 31 31 31 33 34 36
36 37 39 42 45 46 46 45 44 43 43 43 44 45 46 46 45 45 44 44 44 44 44 43 42 41 40 39 37 37 37 35 32 31 31 31 31 31 30 29 28 27 27 27 28 28 28 30 31 31 32 32 32 32 30 29 29 31 33 34 35 37 39 41 42 42 42 42 42 41 40 39 37 36 36 35 34 33 32 32 32 32 32 32 33 33
35 35 35 37 41 44 47 48 47 47 46 46 45 45 43 42 41 41 41 41 41 41 40 40 40 39 39 39 39 38 37 34 33 32 32 32 30 29 29 28 27 27 27 28 29 29 30 31 32 32 32 31 31 32 31 30 30 31 32 34 35 37 38 40 41 42 42 42 41 40 39 37 36 36 36 35 34 33 33 33 32 32 32 31 31 31
35 34 33 34 36 39 43 45 46 45 43 41 39 36 35 34 34 35 35 36 36 36 35 35 35 35 34 35 35 35 35 33 32 32 32 31 29 28 28 29 29 29 29 29 30 30 31 32 32 32 31 30 30 30 30 32 32 32 33 34 35 37 38 40 40 41 40 41 41 40 38 37 36 36 36 35 34 34 34 33 33 33 32 32 32 32
34 34 33 32 33 35 37 39 39 38 36 33 30 28 27 27 28 29 30 31 31 31 31 31 31 31 31 32 33 34 34 33 32 31 30 29 28 28 29 30 31 31 32 32 31 32 32 32 32 31 31 31 31 31 31 32 33 34 34 35 35 36 37 39 39 39 40 40 39 38 38 37 37 36 36 36 35 35 36 36 35 34 34 34 34 34
34 34 33 32 32 33 34 34 34 32 29 27 25 24 23 24 24 25 26 27 27 28 28 28 29 30 32 33 34 35 34 33 32 30 29 28 28 28 29 31 32 33 34 34 34 33 33 33 32 32 32 32 33 33 33 33 33 34 36 36 36 37 37 37 38 39 40 40 40 39 38 38 37 36 36 37 37 36 36 36 35 34 35 35 36 36
32 32 32 32 32 32 32 32 30 27 25 24 23 23 23 22 22 23 24 25 26 26 27 29 30 32 34 35 35 35 33 32 31 30 29 29 29 30 30 32 33 34 35 35 34 34 33 32 33 33 32 34 35 35 35 34 33 33 35 36 36 36 37 38 39 40 40 40 39 38 38 38 37 36 36 36 35 35 34 36 36 36 35 36 37 38
31 31 31 32 32 32 31 30 28 26 25 24 24 24 23 23 22 22 22 24 25 27 28 30 32 34 35 36 35 34 32 31 30 30 30 30 30 31 32 33 33 34 34 33 33 33 32 32 32 33 34 35 35 35 35 35 34 33 34 35 36 38 39 39 40 39 39 39 39 38 38 38 37 37 36 36 35 35 35 36 37 37 37 37 37 37
32 32 32 32 32 32 31 30 29 28 27 26 26 26 25 24 23 22 22 23 25 27 29 31 33 35 35 34 34 32 31 31 30 30 31 31 31 32 32 32 32 31 31 30 30 31 30 30 31 32 33 34 35 35 36 36 35 33 33 35 36 38 39 39 39 39 38 39 39 39 38 38 38 38 37 36 36 36 36 36 36 36 36 36 36 37
33 33 33 33 33 32 32 31 30 30 29 29 28 28 27 25 24 23 23 23 25 26 28 30 32 33 33 33 32 32 31 31 31 31 32 32 32 32 31 30 29 27 27 27 28 29 29 29 30 31 32 32 33 35 36 36 35 35 35 35 35 35 36 38 40 40 40 40 40 40 39 39 38 38 37 36 36 36 36 36 35 34 34 35 35 36
35 35 34 33 33 33 32 32 32 31 31 30 30 29 27 26 25 24 24 24 25 26 28 29 31 31 31 32 32 32 32 32 32 32 33 33 32 31 29 27 25 24 23 24 26 27 28 29 30 31 31 32 32 34 36 36 36 36 36 35 34 34 35 38 40 41 41 41 41 40 39 39 38 38 37 37 36 36 36 35 35 36 35 34 35 36
35 35 34 33 33 33 33 33 33 33 32 31 30 29 28 27 26 25 25 25 25 26 28 29 29 30 30 31 32 32 32 32 32 33 33 32 31 29 26 24 23 22 23 23 25 26 28 29 31 32 32 32 32 33 35 36 36 36 36 36 35 35 36 38 39 39 40 41 41 41 40 39 39 38 37 37 37 36 36 36 36 36 36 36 36 36
36 35 35 34 34 34 34 34 34 33 32 31 30 29 29 28 27 26 25 25 26 27 28 29 29 30 31 31 32 31 31 31 32 33 33 32 30 27 25 24 23 23 23 24 25 26 27 29 30 32 32 33 33 34 35 36 36 36 36 35 35 35 36 37 38 38 39 39 40 41 41 40 39 38 38 37 36 36 37 36 36 36 36 36 35 34
38 37 36 36 35 35 35 35 34 33 32 31 30 30 29 28 27 26 26 26 27 28 29 30 30 31 31 32 31 31 31 31 33 34 34 32 30 28 26 25 24 24 24 25 25 26 28 29 30 31 32 33 35 36 36 35 35 35 35 35 35 35 36 37 36 37 37 38 40 41 42 42 40 39 38 38 37 37 37 37 37 36 35 35 34 33
41 39 38 37 36 36 35 34 33 32 31 30 30 30 29 28 28 27 27 27 28 29 30 31 31 31 31 32 32 31 31 31 33 34 34 33 31 29 27 26 25 25 25 25 26 27 28 29 30 31 32 33 34 36 36 35 34 33 34 34 34 35 35 35 35 36 37 38 40 42 42 41 39 38 38 38 39 39 39 38 37 36 35 34 33 32
39 39 37 36 35 34 33 32 31 30 30 30 30 30 29 29 28 28 28 28 30 31 32 32 32 31 31 32 32 32 31 31 32 33 34 33 32 30 28 27 26 26 26 26 27 28 29 30 30 31 31 30 31 32 33 33 32 31 31 32 32 33 34 35 36 37 37 39 40 41 41 41 40 39 39 38 39 40 40 39 38 36 35 33 32 32
32 33 33 32 31 31 30 30 29 29 29 30 30 29 29 28 28 28 29 30 31 32 33 32 32 31 32 32 32 32 31 31 32 33 33 33 32 30 29 28 27 27 27 27 27 27 28 28 29 30 29 28 27 28 29 30 30 29 29 30 31 32 33 35 37 37 37 38 39 41 42 43 42 40 38 37 37 38 39 38 37 36 34 33 33 33
25 27 28 28 28 28 28 27 28 28 29 29 29 28 28 28 28 29 30 31 32 32 32 32 31 31 32 32 32 32 31 31 31 32 33 33 32 31 30 29 28 27 26 26 25 25 25 25 27 29 30 28 26 24 24 26 27 28 29 30 31 31 33 34 35 36 37 38 39 42 43 43 42 40 37 35 35 36 37 37 37 37 36 35 36 36
Wind_Direction
251 251 251 251 251 252 255 259 262 265 268 271 272 272 271 269 267 266 266 265 266 266 267 268 268 268 267 267 266 265 264 264 265 267 270 272 275 277 279 280 280 281 281 281 281 282 284 285 286 286 285 285 285 284 284 284 284 284 284 284 284 284 284 284 283 283 283 282 281 281 280 280 280 279 279 279 279 278 278 277 277 276 276 276 276 275
251 251 251 251 252 253 255 258 260 263 266 269 271 271 270 268 266 265 265 264 264 265 266 267 267 267 267 267 266 265 265 265 267 270 273 276 279 281 281 282 282 282 282 282 283 284 286 286 285 285 284 284 284 284 284 284 284 285 285 285 285 285 285 285 284 284 283 282 281 281 280 280 279 279 279 278 278 277 277 276 275 275 275 275 275 274
252 252 252 252 253 254 256 258 260 262 265 268 270 271 270 268 266 265 264 263 264 265 266 267 267 268 268 267 267 266 266 267 270 273 277 280 282 284 283 283 283 283 283 283 283 284 285 284 284 283 284 284 285 285 285 285 285 285 285 285 284 284 284 284 283 283 282 282 281 280 279 279 278 278 278 277 277 277 276 275 274 274 274 274 274 274
251 251 252 253 254 255 257 258 260 262 265 268 269 270 269 268 267 266 265 265 265 266 267 268 268 268 269 268 268 267 268 269 272 276 281 283 285 285 286 285 284 284 283 282 282 281 281 282 283 284 284 285 285 285 285 285 285 285 285 285 284 284 284 283 282 282 282 281 280 280 279 278 278 277 277 277 277 276 276 275 275 274 274 274 274 274
250 251 252 253 254 256 258 259 261 263 265 267 269 269 269 268 267 267 266 266 267 268 269 269 269 269 269 269 269 269 269 272 276 280 284 286 286 285 286 284 283 282 281 281 280 280 281 281 282 284 285 285 285 286 286 286 287 287 287 286 285 285 284 284 283 283 283 282 281 281 280 279 278 278 277 277 277 277 276 276 275 275 274 274 274 273
250 250 252 252 253 255 258 259 261 263 265 267 268 269 269 268 268 267 267 267 268 269 270 270 269 269 269 269 270 270 272 275 280 284 287 288 286 284 283 282 281 282 282 282 282 282 282 283 283 284 285 286 286 287 287 287 287 287 287 286 286 286 285 285 284 284 283 283 282 281 280 279 279 278 278 277 277 277 276 276 275 275 274 274 273 273
251 251 251 251 253 255 257 259 261 262 264 266 267 269 269 269 268 268 268 268 269 270 271 270 270 270 270 271 271 273 275 278 282 285 288 289 289 286 285 284 284 285 285 285 286 286 285 285 286 286 287 287 288 288 288 288 288 288 287 287 287 287 286 286 285 284 284 283 282 281 280 279 279 278 278 277 277 277 277 276 276 275 275 274 273 273
251 251 250 250 251 254 256 258 260 261 263 264 265 267 268 269 269 268 268 269 269 270 271 271 270 271 271 272 274 275 277 279 282 285 288 291 293 293 292 292 291 291 290 290 290 289 288 288 288 288 289 290 290 290 289 289 289 289 289 288 288 287 287 287 286 285 285 284 283 282 281 280 280 279 278 278 277 277 277 276 276 275 274 274 273 273
248 249 249 249 250 252 255 257 259 260 261 263 264 265 266 268 268 268 269 269 269 270 270 271 271 272 273 274 275 276 277 280 282 285 288 291 295 297 297 296 295 294 292 292 291 291 291 291 291 291 292 293 293 293 292 292 292 291 291 290 289 289 288 287 287 286 285 284 283 282 282 281 281 280 279 278 277 277 276 276 275 275 274 273 273 272
246 247 248 250 251 252 253 256 258 260 261 262 263 264 265 266 267 268 268 268 269 270 271 272 273 274 274 274 274 275 277 279 281 284 287 290 292 294 295 294 294 293 292 292 292 292 292 293 293 294 295 295 296 296 296 296 296 296 295 295 294 293 291 290 289 287 285 284 283 282 282 282 282 281 280 279 278 277 277 276 276 275 275 274 273 273
246 246 248 249 251 252 253 255 257 259 260 260 262 263 264 264 264 265 266 268 269 271 272 273 274 274 274 274 274 274 276 278 281 283 286 289 291 292 293 293 292 292 292 292 293 294 294 295 295 296 297 298 298 299 299 300 300 300 299 299 297 296 295 293 291 290 289 287 287 286 285 284 283 283 282 282 281 280 279 278 277 277 276 276 275 274
245 246 247 248 249 251 252 254 256 257 257 257 258 260 261 263 263 264 265 267 270 272 273 274 273 273 272 273 274 275 276 277 279 282 287 290 293 294 295 294 294 293 294 295 296 297 297 297 298 299 300 300 301 302 302 302 302 302 302 301 300 299 298 296 295 294 293 291 290 289 288 286 285 284 284 283 282 282 281 280 279 278 277 277 276 275
244 245 246 247 248 250 251 251 252 252 252 252 253 255 258 262 264 264 265 268 271 273 274 274 273 271 271 271 273 274 276 277 279 283 287 291 294 296 296 296 295 295 296 297 298 298 299 299 300 301 302 303 303 304 304 304 304 304 304 304 303 301 299 297 295 294 293 291 290 289 288 286 285 284 284 283 282 281 281 280 279 278 277 277 276 276
242 243 244 245 247 248 249 249 249 248 248 251 253 256 260 262 264 264 266 268 271 272 273 272 272 272 271 271 272 273 276 278 281 285 288 291 294 296 296 296 295 295 295 295 296 297 299 299 301 302 304 305 305 306 306 306 306 306 306 305 304 301 298 295 294 292 291 290 289 288 287 285 284 283 282 282 281 280 280 279 278 278 277 276 275 275
240 241 241 242 244 246 247 248 248 248 250 253 256 258 261 262 262 262 263 266 269 271 271 271 272 273 273 272 273 274 276 278 281 284 288 291 294 295 295 293 293 293 293 292 293 296 299 300 301 303 305 306 307 307 307 307 307 307 306 305 303 300 297 294 292 291 290 289 288 287 286 285 284 283 282 281 280 280 279 278 278 277 277 276 275 275
240 240 240 242 244 245 246 247 248 249 252 255 256 257 258 258 259 260 261 263 266 268 268 269 271 273 274 274 274 275 276 277 279 282 286 290 292 293 292 289 289 289 290 291 293 296 299 301 302 304 305 306 307 307 307 306 306 306 306 304 302 300 297 293 291 290 289 289 288 287 286 285 284 283 282 281 280 279 278 278 278 277 277 276 275 275
240 239 240 242 243 245 247 248 249 250 253 255 256 257 257 257 258 260 260 262 262 262 260 261 263 266 270 273 274 273 272 274 277 281 285 287 289 289 288 287 286 288 290 292 294 297 300 301 303 304 305 306 306 306 306 305 305 306 306 305 304 302 299 296 293 291 290 289 288 287 286 285 284 283 282 281 280 279 278 278 278 277 277 277 276 275
240 240 241 242 243 245 246 247 248 250 252 254 255 257 258 259 259 260 260 259 257 255 255 255 256 259 263 267 269 270 270 271 275 280 283 284 285 287 287 286 286 288 290 292 295 297 299 301 302 303 304 304 305 305 305 305 306 306 307 306 305 303 300 297 295 292 291 290 289 288 288 287 286 285 284 282 281 280 280 279 279 278 278 277 277 276
239 240 241 241 243 245 245 245 246 247 248 251 252 254 255 257 258 258 258 256 254 252 252 254 255 257 260 262 267 271 273 274 276 278 279 280 282 285 287 286 286 287 289 291 294 297 299 300 302 303 303 303 303 303 304 305 306 306 307 306 304 302 300 297 295 293 292 291 290 289 289 288 287 286 285 284 283 282 281 280 279 279 278 278 277 276
240 240 241 242 243 244 244 245 245 246 249 252 254 254 253 255 256 256 255 254 253 254 255 256 257 259 262 265 270 275 277 278 277 276 276 278 281 284 286 285 284 285 288 290 294 297 298 300 301 302 303 303 303 303 304 305 306 307 307 306 305 302 299 297 295 293 292 291 291 290 290 289 288 287 286 285 284 283 282 281 280 280 279 278 277 276
242 242 242 243 243 243 243 246 249 251 252 254 254 254 254 254 254 254 254 253 253 255 258 258 260 263 266 269 272 275 277 275 274 274 276 278 281 284 285 284 284 285 287 290 294 297 298 300 301 301 302 302 303 304 305 305 306 307 306 305 305 303 300 297 295 293 293 292 292 291 291 290 289 288 287 286 285 284 283 282 282 281 280 280 279 278
245 246 247 247 245 245 247 250 253 254 256 255 254 252 253 253 252 252 253 254 255 258 261 264 267 271 273 273 273 274 273 270 270 272 275 278 280 281 283 283 283 284 287 290 294 297 299 300 300 301 301 302 303 304 305 305 306 306 305 306 306 305 302 299 297 295 294 293 293 292 291 290 289 288 287 287 286 284 283 283 282 281 281 280 280 280
248 250 252 252 251 251 253 254 256 257 258 258 257 257 257 256 254 254 256 258 262 267 272 276 278 277 274 271 270 270 269 269 271 273 274 274 276 278 281 281 282 283 286 290 294 297 298 299 299 300 301 302 303 304 304 305 305 304 304 305 306 305 304 302 300 298 296 295 293 293 292 291 290 289 288 287 286 285 284 283 283 282 282 281 281 281
248 251 253 254 255 256 257 258 258 259 259 261 262 263 262 260 258 259 261 265 270 274 277 277 275 270 266 265 266 267 269 271 273 273 272 271 272 275 278 280 282 284 287 291 294 296 298 298 299 300 301 303 304 304 304 305 304 303 302 303 305 306 306 305 302 300 298 296 294 293 292 290 289 289 288 288 288 287 286 285 285 284 283 283 282 282
246 249 252 255 257 258 259 259 259 260 261 262 264 264 261 259 258 258 261 264 268 270 270 267 261 258 259 262 265 268 270 272 272 272 270 269 270 274 278 280 282 285 288 292 294 296 297 298 299 301 302 303 304 305 305 305 303 302 301 303 306 308 308 307 305 302 300 298 296 294 293 292 291 291 290 290 290 289 289 288 287 286 285 284 283 283
245 248 251 254 256 258 258 259 259 260 261 263 264 263 261 258 256 255 256 258 260 261 260 256 254 255 260 263 266 268 270 270 270 269 268 267 269 274 278 280 283 285 288 291 293 295 296 298 299 300 302 303 305 306 306 305 304 302 302 304 306 307 308 308 307 305 303 300 298 296 295 294 294 293 292 292 291 291 290 290 288 287 286 285 284 283
246 247 250 252 254 256 256 257 257 258 260 261 262 262 260 258 254 252 251 254 257 258 255 252 253 256 261 264 267 268 269 268 267 266 265 266 268 272 277 280 283 286 288 290 293 295 296 297 298 300 301 304 306 308 308 307 305 304 302 302 304 306 310 310 310 308 306 303 300 298 296 295 295 294 293 293 292 292 291 290 289 288 287 286 285 284
247 247 248 250 252 253 254 255 256 257 258 259 259 259 258 256 253 251 253 257 259 256 252 250 251 255 261 265 268 269 269 266 263 262 262 264 266 271 276 281 284 286 288 291 293 295 296 296 297 300 302 305 306 307 307 306 304 303 302 302 304 308 312 314 313 311 308 304 301 299 297 297 296 295 294 293 293 292 292 291 290 289 288 287 286 285
245 245 246 248 250 252 253 254 255 256 256 256 256 255 253 253 252 253 256 259 256 251 248 248 251 256 262 267 269 270 267 263 261 261 262 264 266 270 277 281 284 287 290 293 296 296 295 295 296 299 301 304 304 304 304 303 303 303 304 305 308 312 316 317 315 312 309 305 302 300 298 297 296 295 294 294 294 293 293 293 292 291 290 289 287 286
241 241 241 243 245 247 250 251 253 253 253 253 252 249 246 246 248 250 253 253 249 246 246 250 255 261 265 267 266 264 262 262 263 263 263 263 266 271 277 281 284 286 290 294 297 297 296 296 297 298 299 301 302 302 302 303 304 306 307 309 312 315 317 317 316 313 309 306 303 301 299 298 297 296 296 296 295 295 295 294 293 292 291 290 289 288
238 237 237 237 237 238 240 243 245 246 246 246 244 241 239 239 241 243 245 245 246 247 251 256 261 265 266 262 258 254 256 260 263 265 265 265 268 272 278 281 283 285 287 289 291 293 295 297 298 298 299 299 300 301 302 304 306 307 309 311 312 314 316 316 314 312 310 307 304 302 301 299 299 298 298 298 298 297 297 296 295 293 292 291 290 289
240 236 236 235 233 232 232 233 235 236 237 236 235 234 234 235 237 240 243 245 248 252 256 259 261 263 263 260 255 252 255 261 266 268 269 270 272 275 279 281 282 284 285 284 284 284 288 292 296 298 299 299 300 301 302 304 305 307 308 309 310 312 315 315 314 313 312 310 308 306 304 302 301 301 301 301 300 300 299 298 297 295 294 293 292 291
244 239 237 236 235 233 232 231 231 232 232 233 233 234 236 238 240 244 247 250 253 255 256 256 256 257 258 258 258 259 262 267 271 273 274 274 276 278 279 280 281 282 284 284 282 281 281 285 290 295 298 299 300 301 302 303 304 305 307 307 308 311 314 315 315 314 313 311 309 308 306 305 304 304 304 304 304 303 302 301 300 298 296 295 293 293
250 245 241 239 237 237 236 235 235 235 236 238 240 242 244 246 248 250 252 254 256 257 258 256 253 251 252 255 259 263 267 270 273 275 276 276 277 278 279 279 279 281 283 283 282 282 281 283 287 292 296 298 299 299 300 301 303 304 306 307 307 309 312 314 314 314 313 311 309 308 307 307 307 307 307 307 306 306 304 303 302 300 298 296 294 292
252 251 247 244 242 240 240 240 240 241 243 246 248 250 251 252 252 252 253 255 256 258 258 256 252 249 248 251 257 262 266 270 273 276 277 276 277 277 277 277 277 279 280 281 281 282 282 284 287 290 294 296 298 298 299 300 302 304 306 306 306 307 309 311 312 312 312 310 309 308 308 308 308 307 307 307 307 306 305 304 302 301 299 297 294 292
249 251 250 248 246 244 243 243 244 246 249 251 253 253 252 252 251 251 252 254 255 255 255 254 252 249 248 250 254 259 264 269 273 276 277 277 276 275 274 274 275 276 277 278 279 280 282 285 288 290 292 293 295 297 299 301 303 304 305 306 306 307 308 310 311 311 310 309 308 307 307 307 306 306 306 306 306 306 305 304 303 303 302 301 299 296
247 249 249 248 246 244 244 244 245 248 250 251 251 250 249 249 250 252 253 254 254 253 252 250 249 249 249 251 254 258 263 268 272 275 275 275 275 274 273 274 276 277 276 276 278 280 282 284 287 289 290 290 292 295 299 302 304 304 304 305 305 306 307 309 311 310 308 307 306 306 306 306 305 305 306 306 307 308 309 309 309 308 307 306 303 301
245 247 248 247 246 244 244 245 246 248 248 247 246 245 246 250 253 256 257 256 254 251 249 248 248 249 250 252 254 257 261 266 270 273 273 273 273 272 273 275 277 278 278 278 278 279 280 282 284 287 288 289 291 293 296 300 302 303 304 305 305 305 306 308 310 310 308 307 306 306 306 306 306 306 307 308 309 310 311 312 311 310 308 306 304 303
243 244 245 246 246 246 246 247 248 248 247 246 245 248 252 257 260 261 259 256 253 250 248 248 249 250 251 253 254 256 260 265 269 272 273 272 272 272 273 275 276 278 279 280 280 279 279 279 280 282 285 289 292 294 296 299 300 302 304 306 305 305 305 307 308 309 309 308 308 308 308 308 307 306 306 307 308 309 309 309 308 307 306 305 305 305
239 240 241 243 243 244 245 247 248 249 248 248 250 253 258 262 263 261 257 254 251 249 248 249 249 250 251 252 253 256 260 266 271 274 274 274 273 273 274 275 277 278 280 280 280 279 278 277 279 281 284 286 290 293 296 298 299 301 303 304 303 304 305 307 309 310 311 311 310 309 309 308 307 306 305 305 305 305 305 306 307 306 305 305 305 305
236 237 238 240 241 243 245 248 250 250 250 251 253 256 259 261 260 258 255 252 250 248 248 248 249 249 250 251 253 257 262 268 272 274 275 275 274 274 275 275 277 278 279 279 278 278 278 278 279 282 284 287 289 292 294 295 297 299 300 300 300 302 305 307 309 311 312 312 311 310 309 308 307 306 305 304 304 304 304 305 305 306 305 304 303 302
237 237 238 239 240 242 245 248 250 250 251 252 254 256 258 259 259 258 256 253 251 250 249 249 248 248 249 252 255 260 265 269 272 273 274 274 274 274 274 275 276 277 277 277 277 278 279 280 281 282 285 287 290 291 292 294 296 297 298 298 300 302 305 308 311 313 312 312 312 311 310 309 308 307 306 305 304 304 305 304 303 302 302 301 301 300
236 238 239 240 241 243 245 245 246 247 248 250 252 255 258 260 260 260 259 259 257 255 253 250 249 248 250 254 259 263 266 269 271 273 274 275 275 274 274 275 276 277 278 278 278 279 281 282 282 283 286 288 289 289 290 292 295 297 297 298 300 301 302 305 310 314 313 313 312 313 312 311 310 308 306 304 303 304 304 303 302 301 300 299 298 298
238 239 239 240 241 242 242 242 242 244 246 248 252 256 260 262 263 262 262 262 262 260 256 252 250 250 252 256 260 264 267 270 272 274 275 276 276 275 275 276 278 280 281 280 280 281 284 284 285 286 288 289 289 289 289 291 293 295 297 299 299 297 297 301 307 311 312 313 314 314 313 312 310 308 305 304 304 304 304 303 303 302 301 300 299 298
238 238 238 238 238 237 237 238 240 243 244 248 252 256 260 263 263 263 262 263 263 261 257 253 250 250 252 256 260 264 267 270 273 276 278 278 278 277 277 280 283 286 286 285 284 284 284 285 287 290 292 291 288 287 287 289 292 294 297 299 299 299 299 302 305 307 309 312 313 314 314 312 310 307 305 304 304 304 304 304 303 302 302 301 301 301
236 236 235 235 234 233 234 237 239 241 243 247 251 256 260 262 263 262 262 262 261 260 257 254 251 250 252 255 259 262 265 269 274 277 279 280 279 279 280 283 287 289 289 289 288 288 287 287 289 292 293 291 289 287 287 288 291 293 296 299 300 301 302 303 305 306 308 310 311 313 313 312 310 307 305 304 304 304 304 303 302 302 303 304 305 305
235 234 233 232 231 231 233 234 236 238 241 246 251 255 259 260 261 260 260 260 260 259 257 254 252 251 253 256 258 261 264 268 273 277 279 280 280 281 282 285 288 290 290 289 289 289 290 290 291 292 291 289 287 287 289 291 291 293 296 300 301 301 301 302 303 306 308 309 309 311 313 312 310 307 305 305 304 303 304 304 304 305 306 307 308 308
233 232 230 229 228 228 229 231 233 236 240 246 251 254 256 258 259 259 259 260 260 259 255 252 250 251 253 256 258 260 263 267 271 276 278 279 280 281 284 287 289 289 289 289 288 289 290 292 293 293 291 288 286 287 290 292 294 295 298 300 300 299 299 299 302 305 307 307 309 311 312 310 308 306 305 304 304 303 304 305 306 307 308 308 309 309
231 229 227 226 225 225 226 229 232 236 242 247 251 253 255 257 259 260 261 262 261 258 254 251 250 251 253 256 258 261 264 266 270 273 276 277 279 281 283 286 288 288 288 288 289 290 292 294 294 294 293 289 287 286 289 292 294 295 296 297 297 297 297 298 301 304 306 307 309 311 311 309 306 304 304 303 302 302 304 305 306 307 308 308 308 307
227 225 224 223 223 224 226 230 234 239 245 248 251 253 256 259 261 263 264 263 260 256 253 251 251 252 254 256 259 261 263 265 268 270 273 275 277 279 282 284 285 286 286 287 288 290 291 292 293 294 293 290 286 285 286 289 291 292 291 292 293 295 296 298 301 303 305 307 309 310 310 309 308 306 304 302 301 302 303 304 305 306 307 308 307 306
228 225 224 224 225 228 231 235 240 244 248 250 253 256 259 261 264 265 263 260 256 253 252 252 253 254 255 257 259 261 262 264 265 267 270 273 275 277 280 282 283 283 283 283 284 284 285 287 289 291 292 292 288 284 283 284 287 288 289 291 293 295 296 298 300 303 306 307 308 309 309 308 308 306 304 302 301 301 301 302 303 305 307 308 308 308
Height
1421 1421 1422 1423 1423 1423 1423 1423 1424 1425 1425 1425 1426 1426 1426 1426 1426 1426 1427 1427 1427 1427 1427 1427 1427 1427 1427 1427 1427 1427 1427 1427 1426 1426 1426 1426 1425 1425 1424 1424 1424 1424 1424 1424 1424 1424 1424 1423 1423 1423 1423 1422 1422 1421 1421 1420 1419 1418 1418 1417 1416 1415 1414 1413 1413 1412 1411 1410 1409 1408 1408 1407 1406 1405 1405 1404 1403 1403 1402 1402 1401 1400 1400 1399 1398 1398
1418 1418 1419 1419 1420 1420 1420 1421 1422 1422 1422 1422 1423 1423 1424 1424 1423 1424 1424 1424 1424 1424 1424 1424 1424 1424 1424 1424 1424 1424 1424 1424 1423 1423 1423 1423 1422 1422 1422 1422 1422 1422 1422 1422 1422 1421 1421 1421 1421 1420 1420 1419 1419 1418 1418 1417 1416 1415 1414 1413 1413 1412 1411 1410 1409 1408 1407 1406 1405 1404 1404 1403 1402 1402 1401 1400 1399 1399 1398 1397 1397 1396 1395 1395 1394 1393
1415 1415 1415 1416 1417 1417 1417 1418 1418 1419 1419 1420 1420 1421 1421 1421 1421 1421 1421 1422 1422 1422 1422 1421 1421 1421 1421 1421 1421 1421 1421 1421 1421 1420 1420 1420 1419 1419 1419 1419 1419 1419 1419 1419 1419 1419 1419 1418 1418 1418 1417 1416 1416 1415 1414 1413 1413 1412 1411 1410 1409 1408 1408 1407 1406 1405 1403 1403 1402 1401 1400 1399 1398 1397 1397 1396 1395 1394 1393 1393 1392 1392 1391 1390 1389 1389
1412 1412 1412 1412 1413 1413 1413 1414 1415 1416 1417 1417 1417 1418 1418 1418 1418 1418 1418 1418 1418 1418 1418 1418 1418 1418 1418 1418 1418 1418 1418 1418 1418 1418 1417 1417 1417 1416 1416 1416 1417 1417 1417 1417 1417 1416 1416 1416 1415 1414 1414 1413 1413 1412 1411 1410 1409 1408 1408 1407 1406 1405 1404 1403 1402 1401 1399 1398 1398 1397 1396 1395 1394 1393 1392 1391 1391 1390 1389 1388 1388 1387 1387 1386 1385 1385
1409 1409 1408 1410 1410 1410 1410 1412 1413 1413 1413 1414 1414 1414 1415 1415 1415 1415 1415 1415 1415 1415 1415 1415 1415 1415 1415 1415 1415 1415 1415 1415 1415 1415 1414 1414 1414 1414 1414 1414 1414 1414 1414 1414 1414 1413 1413 1413 1412 1411 1411 1410 1409 1408 1408 1407 1406 1405 1404 1403 1402 1401 1400 1398 1398 1396 1395 1394 1393 1392 1391 1390 1389 1388 1388 1387 1386 1386 1385 1384 1383 1383 1383 1382 1381 1381
1405 1406 1406 1407 1407 1407 1408 1408 1409 1410 1410 1410 1411 1411 1411 1412 1412 1412 1412 1413 1413 1413 1412 1412 1412 1412 1412 1412 1412 1412 1413 1412 1412 1412 1412 1412 1411 1411 1411 1412 1412 1412 1411 1411 1411 1410 1410 1409 1409 1408 1408 1407 1406 1405 1404 1403 1402 1401 1400 1399 1398 1397 1396 1395 1393 1392 1391 1390 1389 1388 1387 1386 1385 1384 1383 1383 1382 1381 1381 1380 1379 1379 1378 1378 1377 1377
1403 1403 1404 1404 1404 1404 1405 1405 1406 1407 1407 1407 1407 1408 1408 1408 1409 1409 1409 1409 1410 1409 1409 1409 1409 1409 1409 1409 1409 1409 1409 1409 1409 1409 1409 1409 1409 1409 1409 1409 1408 1408 1408 1408 1407 1407 1407 1406 1406 1405 1404 1403 1403 1402 1401 1400 1399 1398 1397 1395 1394 1393 1392 1391 1389 1388 1387 1386 1385 1384 1383 1382 1381 1380 1379 1378 1378 1377 1376 1376 1375 1375 1374 1373 1373 1372
1399 1400 1401 1401 1401 1401 1402 1402 1403 1403 1404 1404 1404 1404 1405 1405 1405 1406 1406 1407 1407 1407 1406 1406 1406 1406 1406 1406 1406 1407 1406 1406 1406 1406 1406 1406 1406 1405 1405 1405 1405 1405 1405 1404 1404 1404 1403 1403 1402 1402 1401 1400 1399 1398 1397 1396 1395 1394 1393 1392 1390 1389 1388 1387 1385 1384 1383 1382 1381 1380 1378 1378 1377 1376 1375 1374 1374 1373 1373 1372 1371 1370 1370 1369 1369 1368
1397 1397 1397 1398 1398 1399 1399 1399 1399 1400 1401 1401 1401 1402 1402 1402 1403 1403 1403 1403 1403 1403 1403 1403 1403 1403 1403 1403 1403 1403 1403 1403 1403 1403 1403 1403 1402 1402 1402 1402 1402 1402 1402 1402 1401 1401 1400 1400 1399 1398 1398 1397 1396 1395 1393 1393 1391 1390 1389 1388 1386 1385 1384 1383 1381 1380 1379 1378 1377 1376 1374 1373 1373 1372 1371 1370 1370 1369 1368 1368 1367 1366 1366 1365 1364 1363
1393 1394 1394 1394 1395 1396 1396 1396 1396 1397 1398 1398 1398 1399 1399 1399 1400 1400 1400 1400 1400 1401 1401 1400 1400 1400 1400 1400 1401 1401 1401 1401 1401 1401 1400 1400 1400 1400 1400 1399 1399 1399 1399 1398 1398 1398 1397 1397 1396 1395 1394 1393 1392 1391 1390 1389 1388 1386 1385 1384 1383 1381 1380 1378 1377 1376 1375 1374 1373 1372 1371 1370 1369 1368 1367 1366 1366 1365 1364 1363 1363 1362 1361 1360 1360 1359
1390 1391 1391 1392 1392 1393 1393 1393 1393 1394 1395 1396 1396 1396 1396 1396 1397 1397 1397 1397 1397 1398 1398 1398 1398 1397 1397 1398 1398 1398 1398 1398 1398 1398 1398 1398 1398 1398 1398 1397 1397 1396 1396 1396 1395 1394 1394 1393 1393 1392 1391 1390 1389 1388 1386 1385 1384 1383 1382 1380 1379 1378 1376 1375 1373 1372 1371 1370 1369 1368 1367 1367 1366 1365 1364 1363 1362 1361 1360 1359 1359 1358 1357 1357 1356 1355
1387 1388 1388 1389 1389 1390 1390 1390 1391 1392 1393 1393 1393 1392 1392 1393 1394 1394 1394 1394 1395 1395 1395 1395 1395 1395 1395 1395 1395 1396 1396 1396 1395 1395 1395 1395 1395 1394 1394 1394 1393 1393 1393 1392 1392 1391 1390 1390 1389 1388 1388 1386 1385 1384 1383 1382 1381 1379 1378 1377 1375 1374 1373 1371 1370 1369 1368 1367 1366 1365 1364 1363 1363 1362 1361 1360 1359 1358 1357 1356 1355 1354 1353 1353 1352 1351
1384 1385 1385 1386 1386 1387 1387 1388 1388 1389 1389 1389 1389 1389 1389 1390 1391 1392 1392 1392 1392 1393 1393 1393 1392 1392 1393 1393 1393 1393 1393 1393 1393 1393 1392 1392 1392 1391 1391 1390 1390 1389 1389 1388 1388 1387 1387 1387 1386 1385 1384 1383 1382 1381 1380 1378 1377 1376 1375 1373 1372 1371 1369 1368 1367 1366 1365 1364 1363 1362 1361 1360 1359 1358 1358 1357 1355 1354 1353 1353 1352 1351 1350 1349 1348 1347
1381 1382 1383 1383 1383 1383 1384 1385 1385 1385 1385 1385 1386 1386 1387 1388 1389 1389 1390 1389 1390 1390 1391 1390 1389 1389 1389 1390 1390 1390 1391 1390 1390 1390 1389 1389 1388 1389 1388 1388 1387 1387 1386 1386 1385 1384 1384 1383 1383 1381 1381 1380 1378 1378 1377 1375 1374 1373 1371 1370 1369 1368 1367 1366 1365 1363 1363 1362 1360 1359 1358 1358 1356 1355 1354 1353 1352 1351 1350 1349 1348 1347 1346 1345 1344 1343
1378 1379 1379 1379 1379 1380 1381 1381 1382 1382 1382 1382 1383 1384 1385 1386 1387 1387 1387 1387 1387 1388 1388 1388 1387 1386 1386 1387 1387 1388 1388 1388 1388 1387 1386 1386 1386 1386 1386 1385 1384 1384 1384 1383 1382 1381 1381 1381 1380 1378 1377 1376 1375 1374 1373 1372 1371 1370 1369 1368 1367 1365 1364 1363 1362 1361 1360 1359 1358 1356 1355 1354 1353 1352 1351 1349 1348 1348 1346 1345 1344 1343 1342 1341 1340 1339
1375 1376 1376 1375 1376 1377 1377 1378 1378 1378 1379 1380 1381 1382 1383 1383 1384 1384 1385 1385 1385 1386 1386 1385 1384 1384 1383 1383 1384 1386 1386 1386 1386 1385 1384 1383 1383 1384 1384 1383 1382 1381 1381 1380 1379 1378 1378 1378 1377 1375 1374 1373 1372 1371 1371 1369 1368 1367 1366 1365 1364 1363 1362 1360 1359 1358 1357 1356 1354 1353 1352 1351 1349 1348 1347 1346 1344 1343 1342 1341 1340 1339 1338 1337 1335 1334
1372 1372 1373 1373 1373 1373 1374 1375 1376 1376 1377 1378 1378 1379 1380 1380 1381 1382 1383 1383 1383 1384 1383 1383 1383 1382 1381 1381 1382 1383 1384 1384 1384 1383 1382 1381 1381 1381 1382 1381 1380 1378 1378 1377 1377 1376 1375 1374 1373 1372 1371 1370 1369 1368 1368 1367 1366 1365 1364 1363 1361 1360 1358 1357 1356 1355 1354 1353 1351 1350 1348 1347 1346 1344 1343 1342 1341 1339 1338 1337 1336 1334 1333 1332 1331 1330
1368 1369 1369 1370 1370 1370 1371 1372 1373 1373 1374 1375 1376 1377 1377 1378 1378 1379 1380 1381 1381 1381 1381 1381 1381 1380 1380 1379 1380 1381 1382 1383 1382 1381 1380 1378 1378 1378 1379 1379 1377 1376 1375 1374 1373 1373 1373 1372 1371 1369 1368 1368 1367 1366 1365 1364 1363 1362 1361 1360 1358 1357 1356 1354 1353 1352 1351 1349 1348 1347 1345 1344 1342 1341 1339 1338 1337 1335 1334 1333 1332 1330 1329 1328 1327 1325
1365 1366 1366 1366 1367 1368 1369 1370 1370 1371 1372 1373 1373 1374 1375 1375 1376 1377 1378 1378 1378 1378 1378 1378 1378 1378 1378 1377 1377 1378 1380 1380 1380 1378 1378 1376 1375 1375 1376 1376 1375 1373 1372 1371 1371 1370 1370 1369 1368 1367 1366 1365 1364 1363 1362 1361 1360 1359 1358 1357 1355 1354 1353 1352 1350 1349 1348 1346 1345 1343 1342 1340 1339 1337 1336 1334 1333 1332 1330 1329 1328 1326 1325 1323 1322 1321
1362 1363 1363 1363 1364 1365 1366 1366 1367 1368 1369 1370 1371 1372 1372 1373 1373 1374 1374 1375 1376 1376 1376 1376 1376 1375 1375 1374 1375 1376 1378 1378 1377 1376 1375 1374 1373 1372 1373 1373 1372 1371 1369 1368 1368 1368 1367 1366 1365 1364 1363 1362 1361 1360 1359 1358 1357 1356 1355 1354 1353 1351 1350 1349 1347 1346 1344 1343 1342 1340 1338 1337 1335 1334 1332 1331 1329 1328 1326 1324 1323 1322 1320 1319 1318 1317
1358 1359 1360 1361 1362 1363 1363 1363 1364 1365 1367 1368 1369 1369 1369 1370 1371 1371 1372 1372 1373 1373 1373 1373 1373 1373 1373 1373 1373 1373 1375 1375 1375 1374 1373 1371 1370 1369 1370 1371 1370 1368 1366 1365 1365 1365 1364 1363 1362 1360 1359 1359 1358 1357 1356 1355 1354 1353 1352 1351 1350 1348 1347 1346 1344 1343 1341 1340 1338 1337 1335 1334 1332 1330 1328 1327 1325 1324 1322 1321 1319 1318 1317 1315 1314 1312
1354 1355 1357 1358 1359 1359 1359 1360 1362 1363 1365 1366 1366 1366 1367 1368 1368 1368 1369 1370 1370 1371 1371 1370 1370 1370 1371 1370 1370 1371 1373 1373 1372 1371 1370 1369 1367 1366 1367 1368 1368 1366 1363 1362 1362 1362 1362 1360 1359 1357 1357 1356 1355 1354 1353 1352 1351 1350 1349 1348 1347 1346 1344 1343 1341 1340 1338 1337 1335 1333 1332 1330 1328 1327 1325 1323 1322 1320 1318 1317 1315 1313 1312 1310 1309 1308
1350 1352 1353 1355 1356 1356 1357 1358 1360 1361 1363 1363 1363 1363 1364 1365 1365 1366 1366 1367 1368 1368 1368 1368 1368 1368 1368 1368 1368 1368 1369 1370 1369 1369 1369 1367 1364 1363 1365 1365 1365 1363 1361 1360 1360 1359 1358 1357 1356 1354 1353 1353 1352 1351 1350 1349 1348 1347 1346 1345 1344 1343 1341 1340 1338 1337 1335 1333 1332 1330 1328 1327 1325 1323 1321 1319 1318 1316 1314 1312 1310 1309 1308 1306 1304 1303
1347 1348 1350 1352 1353 1353 1354 1356 1357 1358 1360 1360 1360 1361 1362 1363 1363 1364 1365 1365 1366 1366 1366 1366 1366 1366 1365 1365 1365 1366 1366 1367 1367 1367 1366 1364 1362 1361 1362 1363 1362 1360 1358 1357 1357 1357 1355 1353 1352 1351 1350 1349 1348 1348 1347 1346 1345 1344 1343 1342 1341 1340 1338 1337 1335 1333 1332 1330 1328 1327 1325 1323 1321 1319 1317 1315 1313 1312 1310 1308 1307 1305 1304 1302 1301 1299
1343 1344 1347 1348 1349 1350 1352 1353 1355 1356 1357 1358 1358 1359 1360 1361 1361 1362 1363 1363 1364 1364 1364 1364 1364 1363 1363 1363 1363 1363 1363 1364 1364 1363 1363 1361 1359 1358 1359 1359 1359 1357 1355 1354 1354 1354 1352 1350 1349 1348 1347 1346 1345 1344 1344 1343 1342 1341 1340 1339 1338 1337 1335 1333 1332 1330 1328 1327 1325 1323 1321 1319 1317 1315 1313 1312 1310 1308 1306 1305 1303 1302 1300 1298 1297 1295
1340 1341 1343 1345 1346 1348 1349 1351 1352 1353 1354 1355 1356 1357 1358 1358 1359 1360 1360 1361 1361 1362 1362 1362 1361 1360 1360 1361 1361 1360 1360 1361 1361 1360 1360 1358 1357 1356 1355 1357 1357 1355 1353 1351 1351 1351 1349 1348 1346 1345 1344 1343 1342 1341 1341 1340 1339 1338 1337 1336 1335 1334 1333 1331 1329 1327 1325 1323 1321 1319 1317 1315 1314 1312 1310 1308 1307 1305 1303 1301 1300 1298 1296 1294 1293 1290
1340 1339 1341 1343 1344 1345 1346 1348 1349 1351 1352 1353 1353 1354 1355 1356 1357 1357 1357 1357 1358 1359 1359 1358 1358 1358 1358 1358 1357 1357 1358 1358 1358 1358 1357 1356 1355 1353 1353 1353 1354 1353 1351 1349 1348 1348 1347 1345 1343 1342 1341 1340 1339 1338 1337 1336 1336 1335 1334 1333 1332 1331 1329 1328 1325 1323 1321 1319 1317 1315 1314 1312 1310 1308 1307 1305 1303 1301 1300 1298 1296 1294 1292 1290 1288 1286
1341 1339 1338 1340 1341 1342 1343 1345 1347 1348 1349 1350 1351 1352 1352 1353 1353 1353 1352 1353 1354 1356 1355 1355 1355 1355 1355 1355 1354 1354 1355 1356 1356 1355 1355 1354 1353 1351 1350 1351 1351 1350 1348 1346 1345 1344 1344 1343 1341 1339 1338 1337 1336 1335 1334 1333 1333 1332 1331 1330 1329 1328 1326 1324 1322 1320 1318 1315 1313 1312 1310 1308 1307 1305 1303 1302 1300 1298 1296 1294 1292 1290 1288 1286 1284 1282
1339 1339 1338 1338 1338 1339 1341 1342 1344 1345 1346 1347 1348 1349 1349 1349 1348 1348 1348 1350 1351 1352 1351 1351 1351 1352 1352 1352 1352 1352 1352 1352 1353 1353 1353 1352 1350 1348 1348 1349 1348 1348 1347 1344 1342 1341 1340 1339 1338 1338 1336 1335 1334 1333 1332 1331 1329 1328 1327 1326 1324 1323 1322 1320 1318 1316 1314 1312 1310 1309 1307 1306 1304 1302 1300 1298 1296 1294 1292 1290 1289 1287 1285 1283 1280 1278
1334 1337 1338 1337 1337 1337 1338 1339 1340 1342 1343 1344 1345 1346 1347 1347 1345 1345 1346 1347 1348 1348 1348 1348 1348 1349 1350 1350 1350 1349 1348 1348 1350 1351 1351 1349 1348 1346 1347 1347 1346 1346 1345 1344 1341 1338 1336 1335 1336 1336 1334 1333 1332 1330 1329 1328 1326 1325 1323 1322 1320 1319 1318 1316 1314 1313 1311 1309 1307 1306 1304 1302 1300 1299 1297 1295 1293 1291 1289 1287 1286 1284 1281 1279 1277 1275
1330 1332 1334 1335 1336 1337 1337 1338 1338 1339 1340 1341 1343 1344 1345 1345 1345 1345 1345 1346 1346 1346 1346 1346 1346 1347 1348 1348 1348 1347 1345 1346 1348 1348 1348 1347 1345 1344 1345 1345 1344 1343 1344 1343 1342 1338 1334 1331 1331 1332 1332 1331 1329 1328 1326 1325 1323 1322 1320 1318 1317 1315 1314 1313 1311 1309 1307 1305 1303 1302 1300 1298 1297 1295 1293 1291 1289 1287 1285 1283 1282 1281 1278 1276 1274 1272
1327 1328 1329 1331 1332 1334 1335 1336 1336 1337 1338 1339 1340 1341 1342 1343 1343 1343 1344 1344 1344 1344 1344 1344 1344 1345 1345 1345 1345 1344 1343 1344 1346 1346 1345 1344 1343 1343 1343 1343 1342 1341 1341 1341 1341 1339 1335 1330 1328 1328 1328 1328 1326 1325 1323 1322 1321 1320 1318 1316 1314 1312 1311 1310 1308 1306 1303 1301 1299 1298 1296 1295 1293 1291 1289 1287 1285 1283 1281 1280 1279 1278 1276 1273 1271 1268
1324 1325 1326 1327 1328 1329 1330 1332 1333 1334 1334 1335 1336 1337 1338 1339 1340 1340 1340 1341 1341 1341 1341 1342 1342 1342 1343 1342 1342 1341 1341 1342 1343 1343 1343 1342 1341 1340 1340 1340 1339 1338 1338 1338 1338 1337 1335 1331 1327 1325 1324 1324 1323 1323 1321 1320 1319 1318 1316 1314 1312 1310 1308 1307 1305 1302 1300 1298 1296 1294 1292 1291 1289 1287 1285 1283 1281 1279 1278 1277 1276 1275 1273 1271 1269 1266
1321 1322 1323 1324 1325 1326 1327 1328 1329 1330 1331 1332 1333 1334 1335 1335 1336 1337 1338 1338 1338 1338 1338 1338 1339 1339 1340 1340 1339 1338 1338 1339 1341 1342 1341 1340 1339 1338 1338 1338 1337 1336 1336 1336 1335 1334 1332 1329 1327 1325 1322 1321 1320 1320 1319 1318 1317 1315 1314 1313 1310 1308 1305 1303 1301 1299 1297 1294 1292 1290 1288 1287 1285 1283 1281 1279 1278 1276 1275 1274 1273 1272 1271 1269 1267 1265
1318 1319 1320 1321 1323 1323 1324 1325 1326 1327 1328 1329 1330 1331 1332 1332 1333 1334 1334 1335 1335 1335 1335 1335 1336 1336 1337 1337 1337 1336 1336 1338 1339 1340 1339 1338 1337 1336 1336 1335 1335 1335 1334 1333 1332 1331 1329 1327 1326 1324 1322 1319 1317 1316 1317 1316 1315 1313 1312 1310 1308 1306 1303 1301 1299 1296 1294 1292 1289 1288 1286 1284 1282 1280 1278 1276 1274 1273 1272 1271 1270 1269 1268 1267 1265 1263
1315 1316 1317 1318 1319 1320 1321 1322 1323 1324 1325 1326 1327 1328 1328 1329 1330 1331 1331 1332 1332 1332 1332 1333 1333 1333 1334 1334 1334 1334 1334 1336 1337 1338 1337 1336 1335 1334 1333 1333 1332 1333 1332 1331 1330 1329 1327 1325 1323 1322 1321 1318 1315 1313 1313 1313 1312 1311 1309 1308 1306 1304 1302 1299 1297 1295 1292 1289 1287 1285 1283 1282 1279 1277 1275 1273 1272 1271 1270 1268 1267 1266 1264 1263 1261 1260
1313 1313 1314 1315 1316 1318 1318 1320 1321 1322 1323 1323 1324 1325 1326 1326 1327 1328 1328 1329 1329 1330 1330 1330 1331 1331 1332 1332 1332 1333 1333 1334 1335 1335 1334 1333 1333 1332 1331 1330 1330 1330 1330 1329 1328 1326 1325 1323 1321 1319 1318 1317 1314 1312 1310 1309 1309 1308 1307 1305 1303 1302 1299 1297 1295 1293 1290 1288 1285 1283 1281 1279 1277 1275 1272 1270 1269 1268 1266 1265 1263 1262 1260 1258 1257 1256
1310 1311 1312 1313 1313 1314 1316 1317 1318 1319 1319 1320 1321 1322 1323 1324 1325 1326 1326 1327 1327 1327 1328 1328 1328 1329 1330 1330 1330 1331 1331 1332 1332 1332 1332 1331 1330 1330 1329 1328 1327 1327 1327 1326 1326 1324 1323 1322 1319 1317 1315 1313 1312 1311 1309 1308 1306 1305 1303 1302 1301 1299 1297 1295 1293 1291 1288 1286 1283 1281 1279 1277 1274 1272 1269 1267 1266 1264 1263 1261 1259 1258 1257 1255 1253 1252
1308 1308 1309 1310 1311 1312 1313 1313 1314 1315 1316 1318 1319 1320 1321 1322 1323 1323 1324 1324 1324 1325 1326 1326 1327 1327 1327 1328 1328 1328 1328 1329 1329 1329 1328 1328 1328 1327 1327 1326 1325 1324 1324 1324 1323 1323 1321 1319 1318 1315 1313 1311 1309 1307 1307 1306 1304 1303 1300 1298 1297 1296 1294 1293 1291 1288 1286 1283 1281 1278 1276 1274 1272 1269 1267 1265 1263 1262 1260 1258 1257 1255 1254 1252 1249 1247
1305 1306 1306 1307 1308 1309 1309 1310 1311 1313 1314 1315 1317 1318 1319 1320 1320 1321 1321 1322 1322 1323 1323 1324 1324 1324 1325 1325 1325 1325 1325 1326 1326 1326 1325 1325 1325 1324 1324 1323 1323 1322 1322 1321 1321 1320 1318 1317 1315 1313 1312 1310 1307 1305 1304 1303 1303 1301 1300 1297 1294 1292 1291 1290 1288 1286 1283 1281 1279 1277 1274 1271 1269 1267 1265 1263 1262 1260 1258 1256 1254 1252 1251 1249 1247 1244
1303 1303 1304 1304 1305 1306 1307 1308 1309 1310 1312 1313 1314 1315 1316 1317 1318 1318 1318 1319 1319 1320 1321 1321 1322 1322 1322 1322 1322 1322 1322 1323 1323 1323 1322 1322 1322 1322 1321 1321 1320 1320 1319 1319 1318 1317 1316 1314 1313 1311 1309 1308 1306 1304 1302 1301 1300 1300 1299 1296 1293 1289 1288 1286 1285 1283 1281 1278 1277 1275 1272 1269 1267 1264 1262 1261 1259 1258 1256 1254 1252 1249 1248 1246 1244 1243
1300 1301 1301 1302 1303 1304 1304 1306 1307 1308 1310 1311 1312 1312 1313 1314 1315 1315 1316 1317 1317 1318 1318 1318 1319 1319 1319 1318 1318 1319 1319 1319 1319 1319 1319 1319 1319 1319 1319 1318 1318 1318 1317 1316 1315 1313 1313 1312 1310 1308 1307 1306 1304 1302 1300 1298 1298 1298 1297 1294 1291 1288 1285 1283 1282 1281 1279 1277 1274 1272 1270 1268 1264 1262 1259 1258 1256 1255 1253 1252 1250 1248 1246 1244 1242 1240
1298 1298 1299 1299 1300 1302 1303 1304 1305 1306 1307 1308 1308 1309 1310 1311 1312 1313 1313 1314 1314 1315 1315 1316 1316 1316 1316 1316 1315 1316 1316 1316 1317 1317 1317 1317 1317 1316 1316 1316 1316 1315 1315 1313 1312 1310 1309 1309 1308 1306 1305 1304 1303 1301 1298 1296 1295 1294 1293 1292 1290 1288 1284 1279 1278 1278 1277 1274 1272 1270 1268 1265 1262 1259 1257 1255 1254 1252 1251 1249 1247 1245 1244 1242 1239 1237
1295 1296 1297 1298 1299 1300 1301 1302 1303 1304 1305 1305 1306 1307 1307 1308 1309 1310 1311 1311 1311 1312 1313 1313 1313 1314 1313 1313 1312 1313 1313 1313 1313 1314 1313 1313 1313 1313 1313 1313 1313 1313 1312 1311 1309 1308 1307 1306 1305 1303 1303 1302 1301 1299 1296 1294 1293 1291 1290 1289 1289 1287 1284 1279 1277 1275 1273 1271 1269 1268 1266 1263 1261 1258 1255 1253 1251 1250 1248 1246 1244 1242 1241 1239 1237 1234
1293 1294 1295 1296 1297 1298 1299 1299 1300 1301 1302 1303 1303 1304 1305 1306 1307 1307 1308 1308 1308 1309 1310 1310 1311 1311 1310 1309 1309 1310 1310 1310 1310 1310 1310 1310 1311 1311 1311 1310 1310 1310 1309 1308 1307 1306 1305 1303 1302 1301 1300 1300 1298 1297 1295 1293 1291 1289 1288 1287 1286 1284 1281 1278 1276 1274 1272 1269 1267 1265 1263 1262 1259 1256 1253 1250 1248 1247 1245 1244 1242 1239 1237 1235 1233 1231
1292 1292 1293 1294 1295 1295 1296 1297 1298 1299 1300 1301 1301 1302 1302 1303 1304 1304 1305 1306 1306 1307 1307 1308 1308 1308 1307 1307 1307 1307 1307 1307 1307 1307 1307 1308 1308 1308 1308 1308 1307 1307 1306 1305 1304 1303 1302 1301 1300 1298 1298 1297 1295 1294 1292 1291 1289 1287 1284 1283 1283 1281 1278 1276 1275 1273 1271 1268 1265 1263 1261 1260 1258 1255 1251 1248 1246 1244 1243 1241 1239 1237 1234 1232 1230 1228
1289 1290 1290 1291 1292 1293 1293 1294 1296 1297 1298 1298 1299 1299 1300 1301 1301 1302 1303 1303 1304 1304 1305 1305 1305 1305 1304 1304 1304 1304 1304 1304 1304 1304 1304 1304 1305 1305 1305 1305 1305 1304 1303 1303 1302 1301 1299 1298 1298 1297 1296 1294 1292 1290 1288 1288 1287 1285 1283 1281 1280 1278 1276 1274 1272 1271 1269 1267 1265 1262 1260 1258 1255 1252 1249 1246 1243 1241 1239 1238 1236 1234 1232 1230 1227 1225
1286 1287 1288 1288 1289 1290 1291 1293 1293 1294 1295 1296 1297 1297 1298 1298 1299 1299 1300 1301 1302 1302 1303 1303 1302 1302 1302 1301 1302 1302 1302 1302 1301 1301 1301 1302 1302 1302 1302 1302 1302 1302 1301 1300 1299 1298 1297 1296 1295 1294 1293 1292 1290 1287 1285 1284 1284 1283 1281 1279 1278 1276 1274 1272 1270 1269 1268 1266 1263 1261 1259 1257 1254 1251 1247 1244 1241 1238 1236 1234 1233 1231 1229 1228 1225 1223
1284 1285 1286 1287 1288 1288 1289 1290 1292 1293 1293 1294 1295 1295 1296 1296 1297 1297 1298 1298 1299 1300 1300 1300 1299 1299 1299 1299 1299 1299 1299 1299 1298 1298 1298 1298 1299 1299 1300 1300 1299 1299 1298 1298 1297 1295 1294 1293 1292 1291 1290 1289 1288 1285 1283 1281 1281 1280 1279 1278 1276 1274 1272 1270 1268 1267 1266 1264 1261 1259 1258 1255 1253 1250 1247 1243 1239 1235 1233 1231 1229 1228 1227 1225 1223 1221
1283 1283 1284 1285 1286 1287 1288 1289 1290 1291 1291 1292 1293 1293 1293 1294 1294 1295 1296 1296 1297 1297 1297 1297 1297 1297 1297 1297 1297 1297 1297 1297 1296 1296 1295 1296 1297 1297 1297 1297 1297 1297 1296 1295 1294 1293 1292 1290 1288 1288 1287 1287 1286 1284 1281 1279 1278 1278 1277 1276 1274 1273 1271 1269 1267 1265 1264 1262 1259 1257 1255 1253 1250 1248 1246 1243 1238 1234 1231 1229 1227 1225 1224 1223 1221 1218
1282 1282 1283 1284 1285 1286 1286 1287 1288 1289 1289 1290 1290 1291 1291 1292 1292 1293 1293 1294 1294 1294 1294 1295 1295 1295 1294 1294 1294 1294 1294 1294 1294 1293 1293 1293 1294 1295 1295 1295 1295 1294 1294 1293 1292 1291 1290 1288 1286 1284 1283 1284 1284 1283 1281 1279 1277 1276 1275 1273 1272 1271 1270 1267 1265 1263 1262 1260 1258 1255 1252 1250 1247 1245 1244 1242 1238 1234 1230 1227 1225 1223 1221 1220 1218 1215